カタログに戻る

STARLINK-33658

運用中通信VLEO
NORAD 63384·PAYLOAD·🇺🇸 United States

打ち上げ Mar 26, 2025 から Vandenberg Space Force Base

Loading…

次のパス (今後24時間)

TLE

最新Source: CelesTrak SupGP

元期: Sep 15, 2026, 02:52 UTC

1 63384C 25063X   26258.11993056 -.00039707  00000+0 -11729-2 0  2584
2 63384  53.1575 246.9665 0001390  86.9302 180.5202 15.34415893    13

AllMySatでSTARLINK-33658をリアルタイム追跡

Download on the App Store